Weather History for KAFK - December, 2012

Change the Weather History Date:

Tuesday, December 11, 2012

  Actual Average (KSDA) Record (KSDA)
Temperature  
Mean Temperature 32 °F -  
Max Temperature 45 °F 38 °F 66 °F (1965)
Min Temperature 18 °F 18 °F -2 °F (1962)
Degree Days  
Heating Degree Days 34    
Moisture  
Dew Point 15 °F    
Average Humidity 54    
Maximum Humidity 72    
Minimum Humidity 33    
Precipitation  
Precipitation 0.00 in - - ()
Sea Level Pressure  
Sea Level Pressure 29.99 in    
Wind  
Wind Speed 11 mph (WSW)    
Max Wind Speed 17 mph    
Max Gust Speed 28 mph    
Visibility 10 miles    
Events      
Averages and records for this station are not official NWS values.
T = Trace of Precipitation, MM = Missing Value Source: NWS Daily Summary

Daily Weather History Graph

Daily Weather History Graph

Search for Another Location

Airport or City:

Trip Planner

Search our weather history database for the weather conditions in past years. The results will help you decide how hot, cold, wet, or windy it might be!

Date:

Astronomy

Dec. 11, 2012 Rise Set
Actual Time 7:37 AM CST 4:56 PM CST
Civil Twilight 7:06 AM CST 5:27 PM CST
Nautical Twilight 6:32 AM CST 6:01 PM CST
Astronomical Twilight 5:59 AM CST 6:34 PM CST
Moon 5:33 AM CST (12/11) 3:36 PM CST (12/11)
Length of Visible Light 10h 20m
Length of Day
9h 19m
Waning Crescent, 4% of the Moon is Illuminated
Dec 11
Waning Crescent
Dec 13
New
Dec 19
First Quarter
Dec 28
Full
Jan 4
Last Quarter

Hourly Weather History & Observations

Time (CST) Temp. Windchill Dew Point Humidity Pressure Visibility Wind Dir Wind Speed Gust Speed Precip Events Conditions
12:15 AM 18.0 °F 5.4 °F 6.6 °F 61% 29.92 in 10.0 mi WSW 11.5 mph - N/A   Clear
12:35 AM 18.3 °F 5.2 °F 6.8 °F 61% 29.92 in 10.0 mi WSW 12.7 mph - N/A   Clear
12:55 AM 20.3 °F 7.7 °F 7.2 °F 57% 29.92 in 10.0 mi WSW 12.7 mph - N/A   Clear
1:15 AM 21.6 °F 8.8 °F 6.8 °F 53% 29.92 in 10.0 mi WSW 13.8 mph - N/A   Clear
1:35 AM 21.7 °F 9.6 °F 7.0 °F 53% 29.92 in 10.0 mi WSW 12.7 mph - N/A   Scattered Clouds
1:55 AM 22.8 °F 10.9 °F 7.5 °F 52% 29.93 in 10.0 mi West 12.7 mph - N/A   Overcast
2:15 AM 22.8 °F 11.5 °F 7.7 °F 52% 29.94 in 10.0 mi West 11.5 mph - N/A   Overcast
2:35 AM 23.7 °F 12.1 °F 8.4 °F 52% 29.95 in 10.0 mi West 12.7 mph - N/A   Overcast
2:55 AM 24.1 °F 12.5 °F 8.4 °F 51% 29.94 in 10.0 mi West 12.7 mph - N/A   Overcast
3:15 AM 25.0 °F 14.8 °F 8.8 °F 50% 29.94 in 10.0 mi West 10.4 mph - N/A   Overcast
3:35 AM 25.2 °F 19.5 °F 9.5 °F 52% 29.95 in 10.0 mi WSW 4.6 mph - N/A   Overcast
3:55 AM 23.5 °F - 10.0 °F 56% 29.95 in 10.0 mi Calm Calm - N/A   Overcast
4:15 AM 21.7 °F 10.8 °F 9.5 °F 59% 29.95 in 10.0 mi WSW 10.4 mph - N/A   Scattered Clouds
4:35 AM 22.6 °F 11.3 °F 9.9 °F 58% 29.95 in 10.0 mi West 11.5 mph - N/A   Scattered Clouds
4:55 AM 22.8 °F 12.2 °F 10.2 °F 59% 29.95 in 10.0 mi West 10.4 mph - N/A   Scattered Clouds
5:15 AM 23.2 °F 12.0 °F 10.6 °F 59% 29.96 in 10.0 mi West 11.5 mph - N/A   Scattered Clouds
5:35 AM 23.7 °F 14.0 °F 11.5 °F 60% 29.97 in 10.0 mi West 9.2 mph - N/A   Mostly Cloudy
5:55 AM 22.6 °F 13.4 °F 11.8 °F 63% 29.98 in 10.0 mi West 8.1 mph - N/A   Scattered Clouds
6:15 AM 22.8 °F 12.2 °F 13.3 °F 67% 29.98 in 10.0 mi WNW 10.4 mph - N/A   Clear
6:35 AM 23.9 °F 12.9 °F 14.5 °F 67% 29.99 in 10.0 mi WNW 11.5 mph - N/A   Scattered Clouds
6:55 AM 23.7 °F 13.3 °F 14.9 °F 69% 30.00 in 10.0 mi West 10.4 mph - N/A   Scattered Clouds
7:15 AM 23.0 °F 13.1 °F 14.9 °F 71% 30.00 in 10.0 mi WNW 9.2 mph - N/A   Scattered Clouds
7:35 AM 22.8 °F 11.5 °F 14.9 °F 72% 30.01 in 10.0 mi West 11.5 mph - N/A   Clear
7:55 AM 23.9 °F 13.5 °F 15.6 °F 71% 30.01 in 10.0 mi West 10.4 mph - N/A   Clear
8:15 AM 23.5 °F 13.0 °F 15.4 °F 71% 30.02 in 10.0 mi West 10.4 mph - N/A   Clear
8:35 AM 24.1 °F 14.4 °F 16.2 °F 72% 30.02 in 10.0 mi WSW 9.2 mph - N/A   Clear
8:55 AM 26.4 °F 17.3 °F 16.9 °F 67% 30.02 in 10.0 mi West 9.2 mph - N/A   Clear
9:15 AM 29.3 °F - 18.5 °F 64% 30.02 in 10.0 mi Calm Calm - N/A   Clear
9:35 AM 32.0 °F 24.2 °F 19.2 °F 59% 30.02 in 10.0 mi West 9.2 mph - N/A   Clear
9:55 AM 33.8 °F 25.8 °F 19.6 °F 56% 30.03 in 10.0 mi West 10.4 mph - N/A   Clear
10:15 AM 35.6 °F 26.6 °F 19.9 °F 53% 30.04 in 10.0 mi West 13.8 mph - N/A   Clear
10:35 AM 36.5 °F 28.2 °F 20.3 °F 52% 30.04 in 10.0 mi West 12.7 mph 16.1 mph N/A   Clear
10:55 AM 38.3 °F 30.5 °F 21.2 °F 50% 30.04 in 10.0 mi West 12.7 mph - N/A   Clear
11:15 AM 39.4 °F 31.4 °F 20.8 °F 47% 30.03 in 10.0 mi West 13.8 mph - N/A   Clear
11:35 AM 40.8 °F 32.9 °F 20.3 °F 44% 30.03 in 10.0 mi West 15.0 mph - N/A   Clear
11:55 AM 41.7 °F 34.4 °F 19.4 °F 41% 30.02 in 10.0 mi WSW 13.8 mph 19.6 mph N/A   Clear
12:15 PM 42.8 °F 35.8 °F 17.6 °F 36% 30.01 in 10.0 mi West 13.8 mph 18.4 mph N/A   Clear
12:35 PM 43.0 °F 36.0 °F 17.2 °F 36% 30.01 in 10.0 mi West 13.8 mph 18.4 mph N/A   Clear
12:55 PM 43.9 °F 37.9 °F 17.2 °F 34% 30.00 in 10.0 mi West 11.5 mph - N/A   Clear
1:15 PM 44.6 °F 37.4 °F 18.0 °F 34% 29.99 in 10.0 mi West 16.1 mph 24.2 mph N/A   Clear
1:35 PM 44.6 °F 37.4 °F 18.0 °F 34% 29.99 in 10.0 mi West 16.1 mph 23.0 mph N/A   Clear
1:55 PM 45.1 °F 38.4 °F 18.0 °F 34% 29.99 in 10.0 mi West 15.0 mph - N/A   Clear
2:15 PM 45.0 °F 38.5 °F 17.2 °F 33% 29.98 in 10.0 mi West 13.8 mph 27.6 mph N/A   Scattered Clouds
2:35 PM 45.3 °F 38.7 °F 17.6 °F 33% 29.98 in 10.0 mi West 15.0 mph 24.2 mph N/A   Mostly Cloudy
2:55 PM 45.0 °F 37.6 °F 17.6 °F 33% 29.97 in 10.0 mi West 17.3 mph 24.2 mph N/A   Scattered Clouds
3:15 PM 44.8 °F 37.4 °F 17.6 °F 34% 29.97 in 10.0 mi West 17.3 mph 21.9 mph N/A   Clear
3:35 PM 44.6 °F 37.8 °F 17.8 °F 34% 29.98 in 10.0 mi West 15.0 mph 21.9 mph N/A   Clear
3:55 PM 43.9 °F 36.8 °F 17.6 °F 35% 29.98 in 10.0 mi WSW 15.0 mph - N/A   Clear
4:15 PM 43.0 °F 36.8 °F 17.8 °F 36% 29.98 in 10.0 mi WSW 11.5 mph - N/A   Clear
4:35 PM 41.7 °F 35.2 °F 18.1 °F 39% 29.98 in 10.0 mi WSW 11.5 mph - N/A   Clear
4:55 PM 38.3 °F 31.9 °F 18.1 °F 44% 29.98 in 10.0 mi SW 9.2 mph - N/A   Clear
5:15 PM 36.0 °F - 18.0 °F 48% 29.98 in 10.0 mi Calm Calm - N/A   Clear
5:35 PM 33.3 °F - 16.7 °F 51% 29.99 in 10.0 mi Calm Calm - N/A   Clear
5:55 PM 32.2 °F - 16.9 °F 53% 29.99 in 10.0 mi Calm Calm - N/A   Clear
6:15 PM 31.8 °F - 16.7 °F 54% 29.99 in 10.0 mi Calm Calm - N/A   Clear
6:35 PM 29.7 °F 21.3 °F 16.5 °F 58% 29.99 in 10.0 mi SSW 9.2 mph - N/A   Clear
6:55 PM 31.1 °F 22.4 °F 17.6 °F 57% 30.00 in 10.0 mi SSW 10.4 mph - N/A   Clear
7:15 PM 30.9 °F 22.8 °F 17.4 °F 57% 30.00 in 10.0 mi SSW 9.2 mph - N/A   Clear
7:35 PM 30.9 °F 22.8 °F 18.0 °F 59% 30.01 in 10.0 mi SW 9.2 mph - N/A   Clear
7:55 PM 32.0 °F 23.6 °F 18.5 °F 58% 30.01 in 10.0 mi SW 10.4 mph - N/A   Clear
8:15 PM 32.0 °F 23.6 °F 18.5 °F 58% 30.02 in 10.0 mi SW 10.4 mph - N/A   Clear
8:35 PM 32.0 °F 23.0 °F 18.5 °F 58% 30.02 in 10.0 mi SW 11.5 mph - N/A   Clear
8:55 PM 32.0 °F 22.5 °F 18.5 °F 58% 30.02 in 10.0 mi SW 12.7 mph - N/A   Clear
9:15 PM 31.6 °F 23.1 °F 18.5 °F 58% 30.02 in 10.0 mi SW 10.4 mph - N/A   Clear
9:35 PM 30.9 °F 22.8 °F 18.5 °F 60% 30.02 in 10.0 mi SW 9.2 mph - N/A   Clear
9:55 PM 28.9 °F - 18.1 °F 64% 30.03 in 10.0 mi Calm Calm - N/A   Clear
10:15 PM 27.5 °F 18.0 °F 17.6 °F 66% 30.03 in 10.0 mi SSW 10.4 mph - N/A   Clear
10:35 PM 28.4 °F 19.1 °F 18.9 °F 67% 30.02 in 10.0 mi SSW 10.4 mph - N/A   Clear
10:55 PM 28.4 °F 18.5 °F 18.5 °F 66% 30.03 in 10.0 mi SSW 11.5 mph - N/A   Scattered Clouds
11:15 PM 27.5 °F 18.0 °F 17.8 °F 67% 30.02 in 10.0 mi SSW 10.4 mph - N/A   Clear
11:35 PM 27.9 °F 17.8 °F 18.1 °F 67% 30.02 in 10.0 mi SSW 11.5 mph - N/A   Clear
11:55 PM 28.9 °F 19.2 °F 18.5 °F 65% 30.02 in 10.0 mi SSW 11.5 mph - N/A   Clear